Regional Weather Roundup
Issued by NWS

Home | Current Version | Previous Version | Text Only | Print | Product List | Glossary Off
Versions: 1 2 3 4 5 6 7 8 9 10 11 12 13 14 15 16 17 18 19 20 21 22 23 24 25 26 27 28 29 30 31 32 33 34 35 36 37 38 39 40 41 42 43 44 45 46 47 48 49 50

000
ASUS43 KBIS 230110
RWRND
NORTH DAKOTA REGIONAL WEATHER ROUNDUP
NATIONAL WEATHER SERVICE EASTERN NORTH DAKOTA/GRAND FORKS ND
700 PM CST THU FEB 22 2018

  NOTE: "FAIR" INDICATES FEW OR NO CLOUDS BELOW 12,000 FEET WITH NO
  SIGNIFICANT WEATHER AND/OR OBSTRUCTIONS TO VISIBILITY.

NDZ001>003-009>011-017-230200-
...NORTHWEST NORTH DAKOTA...

CITY           SKY/WX    TMP DP  RH WIND       PRES   REMARKS
WILLISTON      FAIR       1  -6  72 SW6       30.22R WCI -10
MINOT          FAIR       9   1  70 CALM      30.19S
MINOT AFB      FAIR       5   0  78 S3        30.20R
$$

NDZ018>021-031>035-040>046-230200-
...SOUTHWEST NORTH DAKOTA...

CITY           SKY/WX    TMP DP  RH WIND       PRES   REMARKS
BISMARCK       CLOUDY    16   8  71 CALM      30.22R
DICKINSON      FAIR      13   5  70 NW5       30.10F WCI   5
GARRISON         N/A      4  -2  76 NW6       30.18S WCI  -7
HETTINGER      FAIR      10   3  73 E6        30.12R WCI   0
$$

NDZ004>008-012>016-024-026-027-054-230200-
...NORTHEAST NORTH DAKOTA...

CITY           SKY/WX    TMP DP  RH WIND       PRES   REMARKS
GRAND FORKS    MOCLDY    17  12  80 S5        30.30S WCI  10
GRAND FORKS AF CLOUDY    14   9  79 S6        30.28F WCI   5
DEVILS LAKE    FAIR       9   5  84 S7        30.24R WCI  -2
$$

NDZ022-023-025-028>030-036>039-047>053-230200-
...SOUTHEAST NORTH DAKOTA...

CITY           SKY/WX    TMP DP  RH WIND       PRES   REMARKS
JAMESTOWN      CLOUDY    20  15  81 S6        30.22S WCI  12
FARGO          FAIR      23  15  71 SE7       30.29F WCI  15
WAHPETON       CLOUDY    23  19  86 E9        30.28F WCI  13
$$



USA.gov is the U.S. government's official web portal to all federal, state and local government web resources and services.